Tiempo cada hora Barra de Maldonado

Hoy, 28 Febrero, Domingo

Tiempo Temperatura Precipitaciones Viento Presión Humedad
00:00 +20°C° 0 mm 6 mps 764 mmHg 89%
01:00 +19°C° 0 mm 6 mps 763 mmHg 89%
02:00 +19°C° 0 mm 6 mps 763 mmHg 87%
03:00 +19°C° 0 mm 6 mps 763 mmHg 87%
04:00 +19°C° 0 mm 6 mps 763 mmHg 88%
05:00 +17°C° 0 mm 6 mps 763 mmHg 89%
06:00 +20°C° 0 mm 6 mps 763 mmHg 82%
07:00 +22°C° 0 mm 6 mps 764 mmHg 75%
08:00 +24°C° 0 mm 6 mps 764 mmHg 67%
09:00 +26°C° 0 mm 6 mps 764 mmHg 63%
10:00 +28°C° 0 mm 6 mps 764 mmHg 58%
11:00 +29°C° 0 mm 6 mps 763 mmHg 53%
12:00 +29°C° 0 mm 7 mps 763 mmHg 53%
13:00 +30°C° 0 mm 7 mps 762 mmHg 52%
14:00 +31°C° 0 mm 8 mps 762 mmHg 51%
15:00 +29°C° 0 mm 8 mps 761 mmHg 56%
16:00 +28°C° 0 mm 8 mps 761 mmHg 60%
17:00 +27°C° 0 mm 8 mps 760 mmHg 65%
18:00 +24°C° 0 mm 8 mps 760 mmHg 70%
19:00 +23°C° 0 mm 7 mps 761 mmHg 75%
20:00 +21°C° 0 mm 7 mps 761 mmHg 80%
21:00 +21°C° 0 mm 7 mps 761 mmHg 82%
22:00 +21°C° 0 mm 7 mps 761 mmHg 84%
23:00 +20°C° 0 mm 6 mps 761 mmHg 86%

Mañana, 1 Marzo, Lunes

Tiempo Temperatura Precipitaciones Viento Presión Humedad
00:00 +20°C° 0 mm 6 mps 760 mmHg 88%
01:00 +20°C° 0 mm 6 mps 760 mmHg 90%
02:00 +19°C° 0 mm 6 mps 760 mmHg 92%
03:00 +19°C° 0 mm 5 mps 760 mmHg 92%
04:00 +19°C° 0 mm 5 mps 760 mmHg 92%
05:00 +19°C° 0 mm 5 mps 760 mmHg 92%
06:00 +20°C° 0 mm 5 mps 760 mmHg 86%
07:00 +22°C° 0 mm 5 mps 760 mmHg 80%
08:00 +24°C° 0 mm 6 mps 760 mmHg 74%
09:00 +26°C° 0 mm 6 mps 760 mmHg 69%
10:00 +28°C° 0 mm 6 mps 760 mmHg 64%
11:00 +29°C° 0 mm 6 mps 760 mmHg 59%
12:00 +29°C° 0 mm 6 mps 760 mmHg 58%
13:00 +30°C° 0 mm 7 mps 759 mmHg 57%
14:00 +30°C° 0 mm 7 mps 759 mmHg 55%
15:00 +29°C° 0 mm 7 mps 758 mmHg 60%
16:00 +28°C° 0 mm 7 mps 758 mmHg 65%
17:00 +27°C° 0 mm 7 mps 758 mmHg 70%
18:00 +24°C° 0 mm 7 mps 758 mmHg 78%
19:00 +23°C° 0 mm 6 mps 758 mmHg 85%
20:00 +21°C° 0 mm 5 mps 758 mmHg 93%
21:00 +21°C° 0 mm 5 mps 759 mmHg 94%
22:00 +21°C° 0 mm 5 mps 759 mmHg 95%
23:00 +21°C° 0 mm 4 mps 759 mmHg 96%

Pasado mañana, 2 Marzo, Martes

Tiempo Temperatura Precipitaciones Viento Presión Humedad
00:00 +20°C° 0 mm 4 mps 758 mmHg 96%
01:00 +20°C° 0 mm 4 mps 758 mmHg 96%
02:00 +20°C° 0 mm 3 mps 758 mmHg 97%
03:00 +20°C° 0 mm 3 mps 758 mmHg 97%
04:00 +20°C° 0 mm 3 mps 758 mmHg 97%
05:00 +20°C° 0 mm 3 mps 758 mmHg 97%
06:00 +22°C° 0 mm 3 mps 758 mmHg 91%
07:00 +24°C° 0 mm 3 mps 759 mmHg 85%
08:00 +26°C° 0 mm 3 mps 759 mmHg 80%
09:00 +28°C° 0 mm 4 mps 759 mmHg 73%
10:00 +29°C° 0 mm 4 mps 759 mmHg 66%
11:00 +32°C° 0 mm 4 mps 759 mmHg 59%
12:00 +32°C° 0 mm 5 mps 759 mmHg 59%
13:00 +32°C° 0 mm 5 mps 759 mmHg 59%
14:00 +32°C° 0 mm 6 mps 758 mmHg 59%
15:00 +30°C° 0 mm 6 mps 758 mmHg 63%
16:00 +29°C° 0 mm 6 mps 758 mmHg 67%
17:00 +28°C° 0 mm 7 mps 758 mmHg 71%
18:00 +26°C° 0 mm 6 mps 759 mmHg 79%
19:00 +23°C° 0 mm 6 mps 759 mmHg 86%
20:00 +22°C° 0 mm 5 mps 759 mmHg 93%
21:00 +21°C° 0 mm 5 mps 760 mmHg 94%
22:00 +21°C° 0 mm 5 mps 760 mmHg 95%
23:00 +21°C° 0 mm 4 mps 760 mmHg 96%

3 Marzo, Miércoles

Tiempo Temperatura Precipitaciones Viento Presión Humedad
00:00 +21°C° 0 mm 4 mps 760 mmHg 96%
01:00 +20°C° 0 mm 4 mps 760 mmHg 96%
02:00 +20°C° 0 mm 3 mps 759 mmHg 96%
03:00 +20°C° 0 mm 3 mps 760 mmHg 96%
04:00 +20°C° 0 mm 3 mps 760 mmHg 96%
05:00 +20°C° 0 mm 3 mps 760 mmHg 96%
06:00 +21°C° 0 mm 4 mps 760 mmHg 91%
07:00 +23°C° 0 mm 4 mps 761 mmHg 85%
08:00 +26°C° 0 mm 5 mps 761 mmHg 80%
09:00 +27°C° 0 mm 5 mps 761 mmHg 71%
10:00 +29°C° 0 mm 5 mps 761 mmHg 63%
11:00 +30°C° 0 mm 5 mps 761 mmHg 55%
12:00 +30°C° 0 mm 6 mps 761 mmHg 56%
13:00 +32°C° 0 mm 6 mps 761 mmHg 57%
14:00 +32°C° 0 mm 7 mps 760 mmHg 57%
15:00 +30°C° 0 mm 7 mps 760 mmHg 62%
16:00 +28°C° 0 mm 7 mps 760 mmHg 67%
17:00 +27°C° 0 mm 7 mps 759 mmHg 71%
18:00 +26°C° 0 mm 7 mps 760 mmHg 78%
19:00 +23°C° 0 mm 6 mps 760 mmHg 85%
20:00 +22°C° 0 mm 6 mps 760 mmHg 92%
21:00 +21°C° 0 mm 5 mps 760 mmHg 93%
22:00 +21°C° 0 mm 5 mps 760 mmHg 94%
23:00 +20°C° 0 mm 4 mps 761 mmHg 95%

4 Marzo, Jueves

Tiempo Temperatura Precipitaciones Viento Presión Humedad
00:00 +20°C° 0 mm 5 mps 760 mmHg 96%
01:00 +20°C° 0 mm 5 mps 760 mmHg 96%
02:00 +20°C° 0 mm 5 mps 760 mmHg 96%
03:00 +19°C° 0 mm 5 mps 759 mmHg 96%
04:00 +19°C° 0 mm 5 mps 759 mmHg 96%
05:00 +19°C° 0 mm 5 mps 759 mmHg 96%
06:00 +20°C° 0 mm 4 mps 759 mmHg 90%
07:00 +22°C° 0 mm 4 mps 760 mmHg 83%
08:00 +23°C° 0 mm 4 mps 760 mmHg 77%
09:00 +26°C° 0 mm 3 mps 760 mmHg 67%
10:00 +28°C° 0 mm 3 mps 759 mmHg 58%
11:00 +30°C° 0 mm 2 mps 759 mmHg 48%
12:00 +30°C° 0 mm 3 mps 759 mmHg 47%
13:00 +32°C° 0 mm 4 mps 759 mmHg 45%
14:00 +32°C° 0 mm 5 mps 758 mmHg 44%
15:00 +30°C° 0 mm 5 mps 758 mmHg 52%
16:00 +28°C° 0 mm 6 mps 757 mmHg 60%
17:00 +27°C° 0 mm 6 mps 757 mmHg 68%
18:00 +24°C° 0 mm 6 mps 757 mmHg 75%
19:00 +22°C° 0 mm 5 mps 757 mmHg 83%
20:00 +21°C° 0 mm 5 mps 757 mmHg 90%
21:00 +20°C° 0 mm 5 mps 757 mmHg 91%
22:00 +19°C° 0 mm 4 mps 757 mmHg 92%
23:00 +19°C° 0 mm 4 mps 757 mmHg 94%

5 Marzo, Viernes

Tiempo Temperatura Precipitaciones Viento Presión Humedad
00:00 +19°C° 0 mm 4 mps 756 mmHg 94%
01:00 +19°C° 0 mm 3 mps 756 mmHg 95%
02:00 +19°C° 0 mm 3 mps 756 mmHg 95%
03:00 +18°C° 0 mm 2 mps 756 mmHg 95%
04:00 +19°C° 0 mm 1 mps 756 mmHg 95%
05:00 +17°C° 0 mm 0 mps 756 mmHg 95%
06:00 +21°C° 0 mm 1 mps 756 mmHg 89%
07:00 +23°C° 0 mm 2 mps 756 mmHg 83%
08:00 +24°C° 0 mm 3 mps 757 mmHg 77%
09:00 +26°C° 0 mm 2 mps 757 mmHg 71%
10:00 +27°C° 0 mm 2 mps 756 mmHg 64%
11:00 +29°C° 0 mm 2 mps 756 mmHg 58%
12:00 +29°C° 0 mm 3 mps 756 mmHg 58%
13:00 +29°C° 0 mm 3 mps 756 mmHg 58%
14:00 +29°C° 0 mm 3 mps 756 mmHg 58%
15:00 +28°C° 0 mm 3 mps 755 mmHg 62%
16:00 +27°C° 0 mm 3 mps 755 mmHg 66%
17:00 +26°C° 0 mm 3 mps 755 mmHg 70%
18:00 +24°C° 0 mm 3 mps 755 mmHg 77%
19:00 +21°C° 0 mm 3 mps 755 mmHg 85%
20:00 +20°C° 0 mm 3 mps 755 mmHg 93%
21:00 +19°C° 0 mm 3 mps 755 mmHg 93%
22:00 +19°C° 0 mm 2 mps 755 mmHg 94%
23:00 +19°C° 0 mm 2 mps 756 mmHg 94%
Mostrar más

Necesitamos Su Consentimiento

Meteoprog y nuestros Proveedores de Servicios pueden almacenar y acceder a sus datos personales como cookies, identificadores de dispositivo u otras tecnologías similares de su dispositivo y procesar dichos datos para personalizar contenido y anuncios, además de ofrecer funciones de redes sociales y analizar el tráfico.

  • Almacenar y/o acceder a información en su dispositivo

    Se puede almacenar o acceder a cookies, identificadores de dispositivo u otra información de su dispositivo para los fines anteriormente indicados.

  • Anuncios y contenido personalizados, medición de anuncios y contenido, percepciones del público, y desarrollo de productos

    Los anuncios y el contenido pueden personalizarse en base a su perfil. Se pueden añadir más datos para personalizar mejor los anuncios y contenidos. Se puede medir el rendimiento de los anuncios y contenidos. Se puede obtener la percepción sobre el público que ha visto los anuncios y contenidos. Dichos datos pueden usarse para desarrollar o mejorar la experiencia del usuario, sistemas y software.

Al hacer clic en ‘Estoy De Acuerdo’ usted permitirá el uso de las cookies, identificadores de dispositivo, balizas web u otras tecnologías similares indicadas. Su configuración puede cambiarse desde el navegador de su dispositivo.

Para ciertos fines, los intereses legítimos pueden ser considerados por encima del consentimiento. Puede leer más sobre ello en nuestra Política de Privacidad y Cookies.